Date,TemperatureHighF,TemperatureAvgF,TemperatureLowF,DewpointHighF,DewpointAvgF,DewpointLowF,HumidityHigh,HumidityAvg,HumidityLow,PressureMaxIn,PressureMinIn,WindSpeedMaxMPH,WindSpeedAvgMPH,GustSpeedMaxMPH,PrecipitationSumIn
2014-1-1,78.0,6.0,73.0,-99.9,-99.9,-99.9,0,0,100,30.19,30.03,23,10,27,0.00
2014-1-2,81.0,4.2,77.0,-99.9,-99.9,-99.9,0,0,100,30.04,29.85,23,16,28,0.00
2014-1-3,67.0,2.5,58.0,-99.9,-99.9,-99.9,0,0,100,30.17,29.87,31,20,37,0.00
2014-1-4,71.0,2.7,68.0,-99.9,-99.9,-99.9,0,0,100,30.16,30.05,21,15,26,0.00
2014-1-5,77.0,1.8,73.0,-99.9,-99.9,-99.9,0,0,100,30.06,29.93,28,14,35,0.00
2014-1-6,77.0,4.3,61.0,-99.9,-99.9,-99.9,0,0,100,30.17,29.95,23,10,31,0.00
2014-1-7,65.0,2.0,49.0,-99.9,-99.9,-99.9,0,0,100,30.28,30.16,26,17,32,0.00
2014-1-8,72.0,2.6,64.0,-99.9,-99.9,-99.9,0,0,100,30.29,30.20,30,-14,36,0.00
2014-1-9,73.0,4.3,69.0,-99.9,-99.9,-99.9,0,0,100,30.23,30.12,29,10,36,0.00
2014-1-10,77.0,5.7,69.0,-99.9,-99.9,-99.9,0,0,100,30.18,30.06,35,-22,40,0.00
2014-1-11,-200.0,0.0,200.0,-99.9,-99.9,-99.9,0,0,100,30.10,29.96,26,18,31,0.00
2014-1-12,72.0,1.2,71.0,-99.9,-99.9,-99.9,0,0,100,30.15,29.99,21,12,24,0.00
2014-1-13,75.0,0.6,75.0,-99.9,-99.9,-99.9,0,0,100,30.14,30.02,18,13,19,0.00
2014-1-14,75.0,0.6,75.0,-99.9,-99.9,-99.9,0,0,100,30.02,29.92,18,10,23,0.00
2014-1-15,61.0,0.5,61.0,-99.9,-99.9,-99.9,0,0,100,30.01,29.91,15,8,20,0.00
2014-1-16,54.0,0.9,52.0,-99.9,-99.9,-99.9,0,0,100,30.12,29.92,20,11,26,0.00
2014-1-17,-200.0,0.0,200.0,-99.9,-99.9,-99.9,0,0,100,30.19,30.08,12,8,15,0.00
2014-1-18,60.0,0.5,60.0,-99.9,-99.9,-99.9,0,0,100,30.22,30.11,15,8,19,0.00
2014-1-19,56.0,0.5,56.0,-99.9,-99.9,-99.9,0,0,100,30.25,30.13,13,7,19,0.00
2014-1-20,62.0,2.0,58.0,-99.9,-99.9,-99.9,0,0,100,30.17,30.02,13,-5,17,0.00
2014-1-21,64.0,2.6,62.0,-99.9,-99.9,-99.9,0,0,100,30.04,29.85,17,1,26,0.00
2014-1-22,52.0,0.5,52.0,-99.9,-99.9,-99.9,0,0,100,30.15,29.86,20,2,29,0.00
2014-1-23,65.0,4.8,45.0,-99.9,-99.9,-99.9,0,0,100,30.27,30.13,19,-43,23,0.00
2014-1-24,61.0,2.3,59.0,-99.9,-99.9,-99.9,0,0,100,30.35,30.20,29,4,35,0.00
2014-1-25,71.0,4.1,52.0,-99.9,-99.9,-99.9,0,0,100,30.21,30.03,11,-46,13,0.00
2014-1-26,73.0,3.6,58.0,-99.9,-99.9,-99.9,0,0,100,30.07,29.97,17,-34,19,0.00
2014-1-27,72.0,2.1,67.0,-99.9,-99.9,-99.9,0,0,100,30.02,29.92,17,-22,19,0.00
2014-1-28,75.0,3.0,66.0,-99.9,-99.9,-99.9,0,0,100,30.07,29.96,17,-5,19,0.00
2014-1-29,72.0,3.0,64.0,-99.9,-99.9,-99.9,0,0,100,30.06,29.96,28,-16,34,0.00
2014-1-30,71.0,4.5,65.0,-99.9,-99.9,-99.9,0,0,100,30.09,30.01,21,-14,25,0.00
2014-1-31,76.0,8.2,70.0,-99.9,-99.9,-99.9,0,0,100,30.07,29.99,19,1,23,0.00
2014-2-1,77.0,3.9,76.0,-99.9,-99.9,-99.9,0,0,100,30.13,30.04,19,1,21,0.00
2014-2-2,77.0,2.0,76.0,-99.9,-99.9,-99.9,0,0,100,30.14,30.05,19,13,22,0.00
2014-2-3,77.0,2.5,76.0,-99.9,-99.9,-99.9,0,0,100,30.11,30.02,20,-3,22,0.00
2014-2-4,77.0,4.6,76.0,-99.9,-99.9,-99.9,0,0,100,30.14,30.05,20,-16,23,0.00
2014-2-5,76.0,5.1,73.0,-99.9,-99.9,-99.9,0,0,100,30.10,30.00,20,-14,22,0.00
2014-2-6,78.0,4.6,75.0,-99.9,-99.9,-99.9,0,0,100,30.11,30.03,15,-8,17,0.00
2014-2-7,72.0,2.1,69.0,-99.9,-99.9,-99.9,0,0,100,30.14,30.05,20,-21,21,0.00
2014-2-8,76.0,4.0,69.0,-99.9,-99.9,-99.9,0,0,100,30.10,29.99,24,-17,26,0.00
2014-2-9,70.0,3.6,65.0,-99.9,-99.9,-99.9,0,0,100,30.08,29.98,26,-15,30,0.00
2014-2-10,75.0,1.9,74.0,-99.9,-99.9,-99.9,0,0,100,30.08,30.00,13,-3,16,0.00
2014-2-11,75.0,1.6,73.0,-99.9,-99.9,-99.9,0,0,100,30.07,29.98,17,-10,20,0.00
2014-2-12,77.0,1.2,68.0,-99.9,-99.9,-99.9,0,0,100,30.03,29.82,29,12,34,0.00
2014-2-13,67.0,2.6,58.0,-99.9,-99.9,-99.9,0,0,100,29.96,29.73,22,5,32,0.00
2014-2-14,64.0,1.1,47.0,-99.9,-99.9,-99.9,0,0,100,30.07,29.96,10,6,15,0.00
2014-2-15,71.0,1.3,64.0,-99.9,-99.9,-99.9,0,0,100,30.11,29.96,19,10,25,0.00
2014-2-16,65.0,1.5,54.0,-99.9,-99.9,-99.9,0,0,100,30.17,30.08,14,0,19,0.00
2014-2-17,73.0,3.8,65.0,-99.9,-99.9,-99.9,0,0,100,30.22,30.13,14,0,15,0.00
2014-2-18,73.0,1.7,72.0,-99.9,-99.9,-99.9,0,0,100,30.23,30.15,14,9,16,0.00
2014-2-19,75.0,1.2,74.0,-99.9,-99.9,-99.9,0,0,100,30.18,30.08,16,12,18,0.00
2014-2-20,76.0,2.3,75.0,-99.9,-99.9,-99.9,0,0,100,30.17,30.07,22,7,24,0.00
2014-2-21,77.0,2.0,76.0,-99.9,-99.9,-99.9,0,0,100,30.11,30.02,24,18,27,0.00
2014-2-22,74.0,0.6,74.0,-99.9,-99.9,-99.9,0,0,100,30.11,30.00,17,9,19,0.00
2014-2-23,77.0,1.4,77.0,-99.9,-99.9,-99.9,0,0,100,30.09,29.98,18,0,20,0.00
2014-2-24,79.0,3.0,77.0,-99.9,-99.9,-99.9,0,0,100,30.04,29.96,11,-4,14,0.00
2014-2-25,76.0,1.1,76.0,-99.9,-99.9,-99.9,0,0,100,30.03,29.92,11,7,14,0.00
2014-2-26,82.0,2.5,66.0,-99.9,-99.9,-99.9,0,0,100,29.96,29.75,20,11,27,0.00
2014-2-27,-200.0,0.0,200.0,-99.9,-99.9,-99.9,0,0,100,29.93,29.75,17,11,21,0.00
2014-2-28,70.0,0.5,70.0,-99.9,-99.9,-99.9,0,0,100,30.08,29.88,17,8,20,0.00
2014-3-1,73.0,0.5,73.0,-99.9,-99.9,-99.9,0,0,100,30.16,30.04,20,12,23,0.00
2014-3-2,74.0,1.0,72.0,-99.9,-99.9,-99.9,0,0,100,30.19,30.08,15,11,20,0.00
2014-3-3,76.0,1.1,74.0,-99.9,-99.9,-99.9,0,0,100,30.08,29.98,19,11,21,0.00
2014-3-4,75.0,1.6,66.0,-99.9,-99.9,-99.9,0,0,100,30.07,29.97,13,1,15,0.00
2014-3-5,72.0,0.5,72.0,-99.9,-99.9,-99.9,0,0,100,30.04,29.92,28,4,33,0.00
2014-3-6,77.0,1.1,76.0,-99.9,-99.9,-99.9,0,0,100,30.00,29.76,22,9,35,0.00
2014-3-7,74.0,0.6,74.0,-99.9,-99.9,-99.9,0,0,100,30.01,29.78,21,11,33,0.00
2014-3-8,-200.0,0.0,200.0,-99.9,-99.9,-99.9,0,0,100,30.13,30.01,19,9,22,0.00
2014-3-9,72.0,1.7,63.0,-99.9,-99.9,-99.9,0,0,100,30.17,30.08,17,9,19,0.00
2014-3-10,-200.0,0.0,200.0,-99.9,-99.9,-99.9,0,0,100,30.11,29.97,17,9,20,0.00
2014-3-11,-200.0,0.0,200.0,-99.9,-99.9,-99.9,0,0,100,30.02,29.86,21,11,24,0.00
2014-3-12,81.0,0.6,81.0,-99.9,-99.9,-99.9,0,0,100,29.90,29.74,22,12,28,0.00
2014-3-13,62.0,0.5,62.0,-99.9,-99.9,-99.9,0,0,100,30.15,29.84,30,20,34,0.00
2014-3-14,68.0,0.5,68.0,-99.9,-99.9,-99.9,0,0,100,30.25,30.13,26,17,31,0.00
2014-3-15,73.0,1.1,71.0,-99.9,-99.9,-99.9,0,0,100,30.18,30.05,16,11,20,0.00
2014-3-16,75.0,1.1,74.0,-99.9,-99.9,-99.9,0,0,100,30.05,29.83,27,19,31,0.00
2014-3-17,76.0,1.2,75.0,-99.9,-99.9,-99.9,0,0,100,29.84,29.72,27,20,30,0.00
2014-3-18,76.0,1.3,72.0,-99.9,-99.9,-99.9,0,0,100,30.01,29.68,28,12,35,0.00
2014-3-19,75.0,0.6,75.0,-99.9,-99.9,-99.9,0,0,100,30.07,29.97,10,6,13,0.00
2014-3-20,75.0,0.6,75.0,-99.9,-99.9,-99.9,0,0,100,30.05,29.95,15,8,17,0.00
2014-3-21,75.0,2.0,73.0,-99.9,-99.9,-99.9,0,0,100,30.06,29.96,17,-8,20,0.00
2014-3-22,75.0,0.5,75.0,-99.9,-99.9,-99.9,0,0,100,30.08,29.97,22,17,27,0.00
2014-3-23,70.0,0.5,70.0,-99.9,-99.9,-99.9,0,0,100,30.05,29.94,15,6,19,0.00
2014-3-24,72.0,1.6,69.0,-99.9,-99.9,-99.9,0,0,100,30.04,29.90,16,0,20,0.00
2014-3-25,76.0,1.1,74.0,-99.9,-99.9,-99.9,0,0,100,30.00,29.83,19,10,30,0.00
2014-3-26,-200.0,0.0,200.0,-99.9,-99.9,-99.9,0,0,100,30.24,29.99,26,17,36,0.00
2014-3-27,72.0,2.2,69.0,-99.9,-99.9,-99.9,0,0,100,30.30,30.17,28,10,37,0.00
2014-3-28,75.0,1.2,75.0,-99.9,-99.9,-99.9,0,0,100,30.20,30.06,26,4,30,0.00
2014-3-29,77.0,6.2,73.0,-99.9,-99.9,-99.9,0,0,100,30.09,29.91,26,-31,48,0.00
2014-3-30,72.0,4.1,69.0,-99.9,-99.9,-99.9,0,0,100,30.05,29.89,19,-35,22,0.00
2014-3-31,70.0,3.4,62.0,-99.9,-99.9,-99.9,0,0,100,30.13,30.04,16,-15,18,0.00
2014-4-1,73.0,3.0,73.0,-99.9,-99.9,-99.9,0,0,100,30.18,30.09,11,-6,15,0.00
2014-4-2,74.0,3.9,72.0,-99.9,-99.9,-99.9,0,0,100,30.19,30.11,15,-11,18,0.00
2014-4-3,74.0,0.7,74.0,-99.9,-99.9,-99.9,0,0,100,30.16,30.07,17,14,19,0.00
2014-4-4,76.0,4.5,76.0,-99.9,-99.9,-99.9,0,0,100,30.09,30.01,19,15,23,0.00
2014-4-5,76.0,3.1,71.0,-99.9,-99.9,-99.9,0,0,100,30.06,29.97,15,-18,17,0.00
2014-4-6,77.0,3.5,76.0,-99.9,-99.9,-99.9,0,0,100,30.03,29.94,19,-2,21,0.00
2014-4-7,78.0,4.2,76.0,-99.9,-99.9,-99.9,0,0,100,29.98,29.87,23,-22,27,0.00
2014-4-8,77.0,1.3,77.0,-99.9,-99.9,-99.9,0,0,100,29.92,29.73,27,1,39,0.00
2014-4-9,73.0,4.3,66.0,-99.9,-99.9,-99.9,0,0,100,30.14,29.86,19,-23,28,0.00
2014-4-10,73.0,3.5,72.0,-99.9,-99.9,-99.9,0,0,100,30.26,30.14,19,-9,23,0.00
2014-4-11,73.0,2.0,72.0,-99.9,-99.9,-99.9,0,0,100,30.23,30.12,20,-1,24,0.00
2014-4-12,75.0,2.1,74.0,-99.9,-99.9,-99.9,0,0,100,30.18,30.08,21,15,24,0.00
2014-4-13,76.0,4.7,75.0,-99.9,-99.9,-99.9,0,0,100,30.10,30.00,23,-5,26,0.00
2014-4-14,78.0,2.0,78.0,-99.9,-99.9,-99.9,0,0,100,30.00,29.90,19,-11,21,0.00
2014-4-15,78.0,5.5,77.0,-99.9,-99.9,-99.9,0,0,100,29.93,29.83,23,-27,29,0.00
2014-4-16,71.0,1.3,70.0,-99.9,-99.9,-99.9,0,0,100,30.07,29.91,25,-1,29,0.00
2014-4-17,76.0,1.8,76.0,-99.9,-99.9,-99.9,0,0,100,30.15,30.04,27,3,31,0.00
2014-4-18,78.0,3.7,73.0,-99.9,-99.9,-99.9,0,0,100,30.10,29.95,25,-7,28,0.00
2014-4-19,77.0,3.8,73.0,-99.9,-99.9,-99.9,0,0,100,29.97,29.86,20,-26,28,0.00
2014-4-20,-200.0,0.0,200.0,-99.9,-99.9,-99.9,0,0,100,30.03,29.93,20,11,22,0.00
2014-4-21,72.0,0.8,72.0,-99.9,-99.9,-99.9,0,0,100,30.03,29.92,21,2,22,0.00
2014-4-22,77.0,5.1,67.0,-99.9,-99.9,-99.9,0,0,100,29.96,29.84,9,-52,10,0.00
2014-4-23,71.0,0.9,71.0,-99.9,-99.9,-99.9,0,0,100,29.95,29.86,9,-6,11,0.00
2014-4-24,78.0,3.9,70.0,-99.9,-99.9,-99.9,0,0,100,30.01,29.92,14,-31,15,0.00
2014-4-25,76.0,1.5,71.0,-99.9,-99.9,-99.9,0,0,100,30.01,29.93,15,-12,17,0.00
2014-4-26,73.0,0.5,73.0,-99.9,-99.9,-99.9,0,0,100,29.93,29.93,17,10,19,0.00
2014-4-27,80.0,0.6,80.0,-99.9,-99.9,-99.9,0,0,100,29.96,29.96,17,11,19,0.00
2014-4-28,80.0,0.6,80.0,-99.9,-99.9,-99.9,0,0,100,29.91,29.91,19,15,22,0.00
2014-4-29,-200.0,0.0,200.0,-99.9,-99.9,-99.9,0,0,100,0.00,40.00,20,15,24,0.00
2014-4-30,-200.0,0.0,200.0,-99.9,-99.9,-99.9,0,0,100,0.00,40.00,22,14,27,0.00
2014-5-1,-200.0,0.0,200.0,-99.9,-99.9,-99.9,0,0,100,30.04,30.04,22,16,25,0.00
2014-5-2,-200.0,0.0,200.0,-99.9,-99.9,-99.9,0,0,100,0.00,40.00,21,16,25,0.00
2014-5-3,-200.0,0.0,200.0,-99.9,-99.9,-99.9,0,0,100,0.00,40.00,19,7,24,0.00
2014-5-4,74.0,0.5,74.0,-99.9,-99.9,-99.9,0,0,100,29.95,29.95,23,14,26,0.00
2014-5-5,-200.0,0.0,200.0,-99.9,-99.9,-99.9,0,0,100,0.00,40.00,9,5,12,0.00
2014-5-26,80.0,80.0,80.0,-99.9,-99.9,-99.9,0,0,100,30.15,30.10,0,-999,0,0.00
2014-5-27,80.0,79.7,79.0,-99.9,-99.9,-99.9,0,0,100,30.14,30.05,0,-999,0,0.00
2014-5-28,80.0,79.3,79.0,-99.9,-99.9,-99.9,0,0,100,30.06,30.03,0,-999,0,0.00
2014-6-4,77.0,77.0,77.0,-99.9,-99.9,-99.9,0,0,100,29.99,29.96,0,-999,0,0.00
2014-6-9,78.0,76.5,75.0,-99.9,-99.9,-99.9,0,0,100,29.93,29.90,0,-999,0,0.00
2014-7-26,84.0,84.0,84.0,-99.9,0.0,200.0,0,0,100,30.05,30.05,0,0,0,0.00
2014-7-29,90.0,4.7,90.0,-99.9,0.0,200.0,0,0,100,29.98,29.95,16,7,19,0.00
2014-7-30,-200.0,0.0,200.0,-99.9,0.0,200.0,0,0,100,29.99,29.93,21,8,24,0.00
2014-7-31,-200.0,0.0,200.0,-99.9,0.0,200.0,0,0,100,30.01,29.93,17,8,24,0.00
2014-8-1,-200.0,0.0,200.0,-99.9,0.0,200.0,0,0,100,30.00,29.93,14,10,16,0.00
2014-8-2,-200.0,0.0,200.0,-99.9,0.0,200.0,0,0,100,29.99,29.89,14,9,16,0.00
2014-8-3,-200.0,0.0,200.0,-99.9,0.0,200.0,0,0,100,29.96,29.86,23,9,28,0.00
2014-8-4,-200.0,0.0,200.0,-99.9,0.0,200.0,0,0,100,30.02,29.87,21,9,26,0.00
2014-8-5,-200.0,0.0,200.0,-99.9,0.0,200.0,0,0,100,30.08,29.97,18,7,25,0.00
2014-8-6,-200.0,0.0,200.0,-99.9,0.0,200.0,0,0,100,30.06,29.99,12,7,14,0.00
2014-8-7,-200.0,0.0,200.0,-99.9,0.0,200.0,0,0,100,30.03,29.94,19,8,34,0.00
2014-8-8,-200.0,0.0,200.0,-99.9,0.0,200.0,0,0,100,30.06,29.97,15,8,16,0.00
2014-8-9,-200.0,0.0,200.0,-99.9,0.0,200.0,0,0,100,30.09,30.01,18,8,21,0.00
2014-8-10,-200.0,0.0,200.0,-99.9,0.0,200.0,0,0,100,30.08,30.00,15,8,19,0.00
2014-8-11,-200.0,0.0,200.0,-99.9,0.0,200.0,0,0,100,30.08,29.98,17,8,20,0.00
2014-8-12,84.0,0.9,84.0,-99.9,0.0,200.0,0,0,100,30.04,29.97,19,9,22,0.00
2014-8-13,-200.0,0.0,200.0,-99.9,0.0,200.0,0,0,100,30.05,29.97,18,8,23,0.00
2014-8-14,85.0,0.9,85.0,-99.9,0.0,200.0,0,0,100,30.05,29.97,14,7,22,0.00
2014-8-15,-200.0,0.0,200.0,-99.9,0.0,200.0,0,0,100,30.06,29.97,20,6,28,0.00
2014-8-16,81.0,1.9,78.0,-99.9,0.0,200.0,0,0,100,30.12,30.01,18,8,30,0.00
2014-8-17,-200.0,0.0,200.0,-99.9,0.0,200.0,0,0,100,30.12,30.04,12,6,14,0.00
2014-8-18,86.0,0.9,86.0,-99.9,0.0,200.0,0,0,100,30.09,29.98,14,8,16,0.00
2014-8-19,-200.0,0.0,200.0,-99.9,0.0,200.0,0,0,100,30.05,29.96,15,8,17,0.00
2014-8-20,87.0,0.9,87.0,-99.9,0.0,200.0,0,0,100,30.10,29.99,13,7,16,0.00
2014-8-21,84.0,0.9,84.0,-99.9,0.0,200.0,0,0,100,30.12,30.05,13,7,15,0.00
2014-8-22,-200.0,0.0,200.0,-99.9,0.0,200.0,0,0,100,30.11,29.98,11,6,14,0.00
2014-8-23,-200.0,0.0,200.0,-99.9,0.0,200.0,0,0,100,30.01,29.86,14,9,17,0.00
2014-8-24,86.0,1.8,85.0,-99.9,0.0,200.0,0,0,100,29.88,29.74,13,7,13,0.00
2014-8-25,-200.0,0.0,200.0,-99.9,0.0,200.0,0,0,100,29.80,29.72,30,16,33,0.00
2014-8-26,-200.0,0.0,200.0,-99.9,0.0,200.0,0,0,100,29.91,29.77,27,21,30,0.00
2014-8-27,83.0,0.8,83.0,-99.9,0.0,200.0,0,0,100,29.99,29.87,17,11,19,0.00
2014-8-28,83.0,0.9,83.0,-99.9,0.0,200.0,0,0,100,30.03,29.94,15,8,18,0.00
2014-8-29,-200.0,0.0,200.0,-99.9,0.0,200.0,0,0,100,30.11,29.98,15,8,17,0.00
2014-8-30,-200.0,0.0,200.0,-99.9,0.0,200.0,0,0,100,30.12,30.05,19,13,26,0.00
2014-8-31,-200.0,0.0,200.0,-99.9,0.0,200.0,0,0,100,30.12,30.06,17,12,24,0.00
2014-9-1,-200.0,0.0,200.0,-99.9,0.0,200.0,0,0,100,30.11,30.03,15,10,17,0.00
2014-9-2,-200.0,0.0,200.0,-99.9,0.0,200.0,0,0,100,30.09,29.99,21,10,26,0.00
2014-9-3,-200.0,0.0,200.0,-99.9,0.0,200.0,0,0,100,30.05,29.96,23,9,25,0.00
2014-9-4,-200.0,0.0,200.0,-99.9,0.0,200.0,0,0,100,30.12,30.02,23,8,34,0.00
2014-9-5,-200.0,0.0,200.0,-99.9,0.0,200.0,0,0,100,30.12,30.03,15,9,17,0.00
2014-9-6,-200.0,0.0,200.0,-99.9,0.0,200.0,0,0,100,30.06,29.96,25,12,29,0.00
2014-9-7,-200.0,0.0,200.0,-99.9,0.0,200.0,0,0,100,30.03,29.96,19,12,21,0.00
2014-9-8,-200.0,0.0,200.0,-99.9,0.0,200.0,0,0,100,30.07,29.98,18,10,22,0.00
2014-9-9,-200.0,0.0,200.0,-99.9,0.0,200.0,0,0,100,30.06,30.01,20,12,23,0.00
2014-9-10,-200.0,0.0,200.0,-99.9,0.0,200.0,0,0,100,30.02,29.95,19,12,22,0.00
2014-9-11,-200.0,0.0,200.0,-99.9,0.0,200.0,0,0,100,30.01,29.93,19,6,24,0.00
2014-9-12,-200.0,0.0,200.0,-99.9,0.0,200.0,0,0,100,30.01,29.90,23,14,28,0.00
2014-9-13,-200.0,0.0,200.0,-99.9,0.0,200.0,0,0,100,30.10,29.97,28,12,38,0.00
2014-9-14,-200.0,0.0,200.0,-99.9,0.0,200.0,0,0,100,30.14,30.04,40,9,54,0.00
2014-9-15,-200.0,0.0,200.0,-99.9,0.0,200.0,0,0,100,30.16,30.07,11,8,13,0.00
2014-9-16,-200.0,0.0,200.0,-99.9,0.0,200.0,0,0,100,30.13,29.97,11,4,16,0.00
2014-9-17,-200.0,0.0,200.0,-99.9,0.0,200.0,0,0,100,30.01,29.88,17,6,23,0.00
2014-9-18,-200.0,0.0,200.0,-99.9,0.0,200.0,0,0,100,29.94,29.87,18,6,22,0.00
2014-9-19,-200.0,0.0,200.0,-99.9,0.0,200.0,0,0,100,29.96,29.88,19,4,27,0.00
2014-9-20,-200.0,0.0,200.0,-99.9,0.0,200.0,0,0,100,29.96,29.85,25,6,28,0.00
2014-9-21,-200.0,0.0,200.0,-99.9,0.0,200.0,0,0,100,30.04,29.93,17,6,27,0.00
2014-9-22,-200.0,0.0,200.0,-99.9,0.0,200.0,0,0,100,30.06,29.94,11,5,14,0.00
2014-9-23,-200.0,0.0,200.0,-99.9,0.0,200.0,0,0,100,30.04,29.93,27,11,31,0.00
2014-9-24,-200.0,0.0,200.0,-99.9,0.0,200.0,0,0,100,30.05,29.96,26,10,30,0.00
2014-9-25,-200.0,0.0,200.0,-99.9,0.0,200.0,0,0,100,30.06,29.97,25,11,27,0.00
2014-9-26,-200.0,0.0,200.0,-99.9,0.0,200.0,0,0,100,30.01,29.93,22,9,25,0.00
2014-9-27,83.0,1.3,83.0,-99.9,0.0,200.0,0,0,100,29.99,29.92,17,12,19,0.00
2014-9-28,83.0,0.6,83.0,-99.9,0.0,200.0,0,0,100,30.00,29.91,23,11,26,0.00
2014-9-29,75.0,0.6,75.0,-99.9,0.0,200.0,0,0,100,29.96,29.81,15,8,23,0.00
2014-9-30,86.0,1.9,80.0,-99.9,0.0,200.0,0,0,100,29.87,29.80,16,6,19,0.00
2014-10-1,84.0,1.8,79.0,-99.9,0.0,200.0,0,0,100,29.99,29.85,20,5,27,0.00
2014-10-2,89.0,1.3,84.0,-99.9,0.0,200.0,0,0,100,30.04,29.93,18,8,21,0.00
2014-10-3,84.0,0.6,84.0,-99.9,0.0,200.0,0,0,100,30.04,29.93,14,6,17,0.00
2014-10-4,87.0,5.0,77.0,-99.9,0.0,200.0,0,0,100,29.99,29.81,14,7,24,0.00
2014-10-5,79.0,3.2,66.0,-99.9,0.0,200.0,0,0,100,29.99,29.88,21,12,24,0.00
2014-10-6,80.0,6.1,79.0,-99.9,0.0,200.0,0,0,100,30.07,29.96,16,12,20,0.00
2014-10-7,81.0,4.8,80.0,-99.9,0.0,200.0,0,0,100,30.09,30.00,19,10,21,0.00
2014-10-8,82.0,1.3,81.0,-99.9,0.0,200.0,0,0,100,30.11,30.02,19,11,23,0.00
2014-10-9,83.0,2.7,81.0,-99.9,0.0,200.0,0,0,100,30.07,29.99,21,14,24,0.00
2014-10-10,82.0,4.8,81.0,-99.9,0.0,200.0,0,0,100,30.04,29.96,21,17,24,0.00
2014-10-11,82.0,1.8,81.0,-99.9,0.0,200.0,0,0,100,30.03,29.95,19,13,23,0.00
2014-10-12,82.0,1.3,81.0,-99.9,0.0,200.0,0,0,100,30.06,29.98,20,13,26,0.00
2014-10-13,83.0,3.1,82.0,-99.9,0.0,200.0,0,0,100,30.09,30.01,21,17,23,0.00
2014-10-14,83.0,1.2,82.0,-99.9,0.0,200.0,0,0,100,30.04,29.93,24,16,28,0.00
2014-10-15,82.0,4.2,76.0,-99.9,0.0,200.0,0,0,100,30.00,29.88,26,8,43,0.00
2014-10-16,79.0,1.2,70.0,-99.9,0.0,200.0,0,0,100,29.97,29.87,16,8,21,0.00
2014-10-17,78.0,0.6,78.0,-99.9,0.0,200.0,0,0,100,29.98,29.90,13,7,17,0.00
2014-10-18,79.0,1.2,73.0,-99.9,0.0,200.0,0,0,100,29.98,29.91,9,6,11,0.00
2014-10-19,80.0,1.8,74.0,-99.9,0.0,200.0,0,0,100,30.02,29.95,14,8,17,0.00
2014-10-20,81.0,2.1,80.0,-99.9,0.0,200.0,0,0,100,30.03,29.93,13,9,16,0.00
2014-10-21,-200.0,0.0,200.0,-99.9,0.0,200.0,0,0,100,29.97,29.90,26,10,30,0.00
2014-10-22,-200.0,0.0,200.0,-99.9,0.0,200.0,0,0,100,29.97,29.89,12,6,17,0.00
2014-10-23,-200.0,0.0,200.0,-99.9,0.0,200.0,0,0,100,29.94,29.88,23,18,28,0.00
2014-10-24,78.0,0.6,78.0,-99.9,0.0,200.0,0,0,100,29.93,29.82,27,23,32,0.00
2014-10-25,78.0,0.6,78.0,-99.9,0.0,200.0,0,0,100,29.94,29.84,24,15,29,0.00
2014-10-26,-200.0,0.0,200.0,-99.9,0.0,200.0,0,0,100,29.93,29.88,13,8,15,0.00
2014-10-27,-200.0,0.0,200.0,-99.9,0.0,200.0,0,0,100,0.00,40.00,13,9,16,0.00
2014-10-28,-200.0,0.0,200.0,-99.9,0.0,200.0,0,0,100,0.00,40.00,15,12,19,0.00
2014-10-29,78.0,1.1,78.0,-99.9,0.0,200.0,0,0,100,30.07,30.05,15,9,19,0.00
2014-10-30,-200.0,0.0,200.0,-99.9,0.0,200.0,0,0,100,0.00,40.00,10,6,11,0.00
2014-10-31,-200.0,0.0,200.0,-99.9,0.0,200.0,0,0,100,0.00,40.00,16,7,22,0.00
2014-11-1,-200.0,0.0,200.0,-99.9,0.0,200.0,0,0,100,0.00,40.00,24,12,33,0.00
2014-11-2,-200.0,0.0,200.0,-99.9,0.0,200.0,0,0,100,0.00,40.00,22,13,28,0.00
2014-11-3,73.0,0.5,73.0,-99.9,0.0,200.0,0,0,100,30.26,30.26,28,16,33,0.00
2014-11-4,76.0,0.6,76.0,-99.9,0.0,200.0,0,0,100,30.16,30.16,27,20,30,0.00
2014-11-5,76.0,0.6,76.0,-99.9,0.0,200.0,0,0,100,30.09,30.09,25,21,29,0.00
2014-11-6,78.0,0.6,78.0,-99.9,0.0,200.0,0,0,100,30.01,30.01,22,9,26,0.00
2014-11-7,-200.0,0.0,200.0,-99.9,0.0,200.0,0,0,100,0.00,40.00,14,7,18,0.00
2014-11-8,-200.0,0.0,200.0,-99.9,0.0,200.0,0,0,100,29.84,29.84,20,10,23,0.00
2014-11-9,-200.0,0.0,200.0,-99.9,0.0,200.0,0,0,100,0.00,40.00,15,6,17,0.00
2014-11-10,-200.0,0.0,200.0,-99.9,0.0,200.0,0,0,100,29.93,29.93,13,7,17,0.00
2014-11-11,64.0,0.5,64.0,-99.9,0.0,200.0,0,0,100,29.88,29.88,15,8,20,0.00
2014-11-12,-200.0,0.0,200.0,-99.9,0.0,200.0,0,0,100,0.00,40.00,24,12,26,0.00
2014-11-13,-200.0,0.0,200.0,-99.9,0.0,200.0,0,0,100,0.00,40.00,14,8,16,0.00
2014-11-14,-200.0,0.0,200.0,-99.9,0.0,200.0,0,0,100,0.00,40.00,15,9,18,0.00
2014-11-15,-200.0,0.0,200.0,-99.9,0.0,200.0,0,0,100,0.00,40.00,15,11,18,0.00
2014-11-16,-200.0,0.0,200.0,-99.9,0.0,200.0,0,0,100,0.00,40.00,18,13,21,0.00
2014-11-17,-200.0,0.0,200.0,-99.9,0.0,200.0,0,0,100,0.00,40.00,25,16,28,0.00
2014-11-18,-200.0,0.0,200.0,-99.9,0.0,200.0,0,0,100,30.08,30.08,20,12,28,0.00
2014-11-19,-200.0,0.0,200.0,-99.9,0.0,200.0,0,0,100,0.00,40.00,24,15,28,0.00
2014-11-20,-200.0,0.0,200.0,-99.9,0.0,200.0,0,0,100,0.00,40.00,26,16,30,0.00
2014-11-21,-200.0,0.0,200.0,-99.9,0.0,200.0,0,0,100,0.00,40.00,30,24,35,0.00
2014-11-22,-200.0,0.0,200.0,-99.9,0.0,200.0,0,0,100,0.00,40.00,29,25,35,0.00
2014-11-23,-200.0,0.0,200.0,-99.9,0.0,200.0,0,0,100,0.00,40.00,29,20,33,0.00
2014-11-24,80.0,0.6,80.0,-99.9,0.0,200.0,0,0,100,30.00,30.00,20,15,24,0.00
2014-11-25,80.0,0.6,80.0,-99.9,0.0,200.0,0,0,100,29.91,29.91,26,19,29,0.00
2014-11-26,-200.0,0.0,200.0,-99.9,0.0,200.0,0,0,100,0.00,40.00,25,14,29,0.00
2014-11-27,-200.0,0.0,200.0,-99.9,0.0,200.0,0,0,100,0.00,40.00,20,11,26,0.00
2014-11-28,-200.0,0.0,200.0,-99.9,0.0,200.0,0,0,100,0.00,40.00,26,16,31,0.00
2014-11-29,-200.0,0.0,200.0,-99.9,0.0,200.0,0,0,100,0.00,40.00,21,14,28,0.00
2014-11-30,74.0,0.5,74.0,-99.9,0.0,200.0,0,0,100,30.25,30.25,25,19,30,0.00
2014-12-1,-200.0,0.0,200.0,-99.9,0.0,200.0,0,0,100,0.00,40.00,28,21,33,0.00
2014-12-2,-200.0,0.0,200.0,-99.9,0.0,200.0,0,0,100,0.00,40.00,27,21,31,0.00
2014-12-3,76.0,0.6,76.0,-99.9,0.0,200.0,0,0,100,30.07,30.07,27,19,30,0.00
2014-12-4,76.0,0.6,76.0,-99.9,0.0,200.0,0,0,100,30.11,30.11,23,20,27,0.00
2014-12-5,77.0,0.6,77.0,-99.9,0.0,200.0,0,0,100,30.18,30.18,23,18,27,0.00
2014-12-6,76.0,0.5,76.0,-99.9,0.0,200.0,0,0,100,30.12,30.12,18,10,21,0.00
2014-12-7,71.0,0.5,71.0,-99.9,0.0,200.0,0,0,100,30.01,30.01,22,11,25,0.00
2014-12-8,-200.0,0.0,200.0,-99.9,0.0,200.0,0,0,100,0.00,40.00,12,7,14,0.00
2014-12-9,62.0,0.4,62.0,-99.9,0.0,200.0,0,0,100,29.99,29.99,16,9,21,0.00
2014-12-10,59.0,0.9,53.0,-99.9,0.0,200.0,0,0,100,30.12,30.09,21,10,27,0.00
2014-12-11,66.0,0.9,65.0,-99.9,0.0,200.0,0,0,100,30.12,30.12,13,6,18,0.00
2014-12-12,59.0,0.4,59.0,-99.9,0.0,200.0,0,0,100,30.16,30.16,13,9,17,0.00
2014-12-13,70.0,0.5,70.0,-99.9,0.0,200.0,0,0,100,30.05,30.05,22,13,25,0.00
2014-12-14,-200.0,0.0,200.0,-99.9,0.0,200.0,0,0,100,0.00,40.00,13,9,17,0.00
2014-12-15,69.0,1.0,67.0,-99.9,0.0,200.0,0,0,100,30.11,30.11,9,6,11,0.00
2014-12-16,73.0,1.0,63.0,-99.9,0.0,200.0,0,0,100,30.14,30.11,9,6,12,0.00
2014-12-17,65.0,1.0,59.0,-99.9,0.0,200.0,0,0,100,30.18,30.16,9,5,12,0.00
2014-12-18,68.0,2.0,65.0,-99.9,0.0,200.0,0,0,100,30.17,30.10,9,5,12,0.00
2014-12-19,74.0,0.5,74.0,-99.9,0.0,200.0,0,0,100,30.07,30.07,14,7,17,0.00
2014-12-20,74.0,0.5,74.0,-99.9,0.0,200.0,0,0,100,30.04,30.04,14,9,17,0.00
2014-12-21,75.0,0.6,75.0,-99.9,0.0,200.0,0,0,100,30.03,30.03,15,10,17,0.00
2014-12-22,76.0,1.1,75.0,-99.9,0.0,200.0,0,0,100,30.03,30.02,20,13,22,0.00
2014-12-23,-200.0,0.0,200.0,-99.9,0.0,200.0,0,0,100,0.00,40.00,20,15,23,0.00
2014-12-24,78.0,1.2,77.0,-99.9,0.0,200.0,0,0,100,29.91,29.91,25,19,29,0.00
2014-12-25,-200.0,0.0,200.0,-99.9,0.0,200.0,0,0,100,0.00,40.00,24,14,29,0.00
2014-12-26,-200.0,0.0,200.0,-99.9,0.0,200.0,0,0,100,0.00,40.00,15,10,17,0.00
2014-12-27,-200.0,0.0,200.0,-99.9,0.0,200.0,0,0,100,0.00,40.00,11,8,12,0.00
2014-12-28,-200.0,0.0,200.0,-99.9,0.0,200.0,0,0,100,0.00,40.00,12,8,14,0.00
2014-12-29,77.0,0.6,77.0,-99.9,0.0,200.0,0,0,100,30.13,30.13,19,13,21,0.00
2014-12-30,-200.0,0.0,200.0,-99.9,0.0,200.0,0,0,100,0.00,40.00,13,6,15,0.00
2014-12-31,73.0,0.5,73.0,-99.9,0.0,200.0,0,0,100,30.14,30.14,18,7,21,0.00
2015-1-1,-200.0,0.0,200.0,-99.9,0.0,200.0,0,0,100,0.00,40.00,18,10,21,0.00
2015-1-2,-200.0,0.0,200.0,-99.9,0.0,200.0,0,0,100,0.00,40.00,21,14,24,0.00